This is the latest recevied weather packets stored in our database for station/object W1REE. If no packets are shown the sender has not sent any weather packets the latest 10 day(s).
| Time | Temp. | Humidity | Pressure | Rain* | Wind** | Luminosity | Snow |
|---|---|---|---|---|---|---|---|
| 1777735629 | 15° C | 20% | 1025 hPa | 0 mm | - | 643 W/m² | - |
| 1777735326 | 15° C | 26% | 1025.2 hPa | 0 mm | - | 618 W/m² | - |
| 1777735023 | 15.56° C | 23% | 1025.2 hPa | 0 mm | - | 601 W/m² | - |
| 1777734721 | 15° C | 25% | 1025.3 hPa | 0 mm | - | 570 W/m² | - |
| 1777734418 | 14.44° C | 25% | 1025.3 hPa | 0 mm | - | 553 W/m² | - |
| 1777734114 | 13.89° C | 26% | 1025.3 hPa | 0 mm | - | 531 W/m² | - |
| 1777733811 | 13.89° C | 26% | 1025.4 hPa | 0 mm | - | 516 W/m² | - |
| 1777733507 | 13.89° C | 27% | 1025.3 hPa | 0 mm | - | 373 W/m² | - |
| 1777733203 | 13.33° C | 29% | 1025.3 hPa | 0 mm | - | 317 W/m² | - |
| 1777732900 | 13.33° C | 29% | 1025.5 hPa | 0 mm | - | 297 W/m² | - |
| 1777732597 | 13.33° C | 30% | 1025.5 hPa | 0 mm | - | 379 W/m² | - |
| 1777732295 | 13.33° C | 32% | 1025.4 hPa | 0 mm | - | 393 W/m² | - |
| 1777731992 | 13.33° C | 30% | 1025.4 hPa | 0 mm | - | 371 W/m² | - |
| 1777731688 | 12.78° C | 34% | 1025.5 hPa | 0 mm | - | 346 W/m² | - |
| 1777731386 | 12.78° C | 30% | 1025.3 hPa | 0 mm | - | 322 W/m² | - |
| 1777731083 | 12.22° C | 32% | 1025.5 hPa | 0 mm | - | 305 W/m² | - |
| 1777730782 | 12.22° C | 35% | 1025.3 hPa | 0 mm | - | 285 W/m² | - |
| 1777730478 | 12.22° C | 32% | 1025.5 hPa | 0 mm | - | 260 W/m² | - |
| 1777730174 | 11.11° C | 34% | 1025.2 hPa | 0 mm | - | 240 W/m² | - |
| 1777729871 | 10.56° C | 37% | 1025.4 hPa | 0 mm | - | 222 W/m² | - |
| 1777729568 | 10.56° C | 40% | 1025.8 hPa | 0 mm | - | 203 W/m² | - |
| 1777729264 | 10° C | 36% | 1025.4 hPa | 0 mm | - | 184 W/m² | - |
| 1777728961 | 8.89° C | 38% | 1025.4 hPa | 0 mm | - | 169 W/m² | - |
| 1777728658 | 8.89° C | 39% | 1025.4 hPa | 0 mm | - | 154 W/m² | - |
| 1777728355 | 8.33° C | 38% | 1025.3 hPa | 0 mm | - | 135 W/m² | - |
* Rain latest hour (hover to see other rain measurements)
** Current wind speed in m/s (hover to see current wind gust speed)